STARLINK-11178 [DTC]

Last updated on Fri Jan 31 2025 00:02:04 GMT+0000 (Coordinated Universal Time)

1 62465U 24254D 25030.33763708 .00002804 00000+0 18962-4 0 9990 2 62465 42.9977 136.1169 0001507 250.4235 109.6472 15.77865671 5786
UTC large
Height (km)
Speed (km/s)
/
Latitude / Longitude
Inclination (degrees)
Orbital Period (minutes)
Azimuth
Elevation
Range (km)
Doppler Factor

Next 0 passes for location: London (51.5072 / 0.1276)

Sorry there are no passes over London.